Capitol Logistics 2856


ZGHA
Changsha Huanghua International Airport
Changcha, CN
PANC
Ted Stevens Anchorage International Airport
Anchorage, US

Activity Log

Date Flight Route Aircraft Duration
12/26/2019 CPX2856 DPR02D DAPRO A461 HOK W56 VYK G212 GIRLO N222 VALDA H222 MCG TAGER8 B744 9h 38m

Route Details

Aircraft Information
Primary: Boeing 747-400BCF
Backup: Boeing 777-200LRF
Route Data
Distance: 4128nm
Sched. Duration: 9h 19m
Avg. Duration: 9h 38m (+18m)
Times Flown: 1
Recm'd Route: DPR02D DAPRO A461 HOK W56 VYK G212 GIRLO N222 VALDA H222 MCG TAGER8
Planned Altitude: 33,000ft
Origin Wx: ZGHA 051500Z VRB01MPS CAVOK 24/24 Q1005 NOSIG
Dest. Wx: PANC 051553Z 16006KT 10SM SCT110 12/06 A2993 RMK AO2 SLP135 T01170061 $
Notes: OPERATED FOR SKYLEASE CARGO

Financial History
Total Freight: 145,028lbs
Average Load: 145,028lbs/flt
Fuel Used: 172,289lbs
Avg. Fuel Used: 172,289lbs/flt
Fuel Expense: $137,831
Avg. Fuel Expense: $137,831
Avg. Fuel Cost: $0.80/lbs
Total Gross Income: $680,181
Pilot Pay: $259
Total Expenses: $73,512
Total Revenue: $466,344
Average Revenue: $680,181.31